Tracking 31027 objects as of 19-Jul-2025
HD Live streaming from Space Station
objects crossing your sky now

CZ-2C R/B

Track CZ-2C R/B now!
10-day predictions


NORAD ID: 37731
Int'l Code: 2011-030B
Perigee: 597.5 km
Apogee: 673.7 km
Inclination: 97.8 °
Period: 97.3 minutes
Semi major axis: 7006 km
RCS: 8.527 m2 (large)
Launch date: July 6, 2011
Source: People's Republic of China (PRC)
Launch site: Jiuquan Satellite Launch Center, China (JSC)

Note: This is a ROCKET BODY
Your satellite tracking list
ATLAS 5 CENTAUR DEB
Track 1 satellite(s)




NASA's NSSDC Master Catalog

Two Line Element Set (TLE):
1 37731U 11030B   25199.62008573  .00001097  00000-0  14737-3 0  9995
2 37731  97.8166 157.2832 0054381  33.4015 139.1927 14.80280700755453
Source of the keplerian elements: AFSPC